| time (UTC) | temp F | wind direction | speed MPH | gust MPH | rain 1hr in | rain 24hr in | rain mn in | humidity % | barometer mb |
| 20260505073334 | 66 | 246 | 2.0 | 9.0 | 0.00 | 0.00 | 0.00 | 60 | 1006.0 |
| 20260505072836 | 66 | 99 | 1.0 | 6.0 | 0.00 | 0.00 | 0.00 | 61 | 1006.0 |
| 20260505072321 | 66 | 132 | 1.0 | 7.0 | 0.00 | 0.00 | 0.00 | 61 | 1006.0 |
| 20260505071827 | 66 | 194 | 2.0 | 7.0 | 0.00 | 0.00 | 0.00 | 61 | 1006.0 |
| 20260505071332 | 66 | 148 | 1.0 | 10.0 | 0.00 | 0.00 | 0.00 | 61 | 1006.0 |
| 20260505070837 | 66 | 224 | 1.0 | 10.0 | 0.00 | 0.00 | 0.00 | 61 | 1006.0 |
| 20260505070322 | 65 | 114 | 2.0 | 6.0 | 0.00 | 0.00 | 0.00 | 62 | 1006.0 |
| 20260505065830 | 65 | 257 | 1.0 | 5.0 | 0.00 | 0.00 | 0.00 | 62 | 1005.7 |
| 20260505065336 | 65 | 187 | 1.0 | 8.0 | 0.00 | 0.00 | 0.00 | 63 | 1005.7 |
| 20260505064842 | 65 | 157 | 3.0 | 8.0 | 0.00 | 0.00 | 0.00 | 62 | 1005.7 |
| 20260505064324 | 65 | 132 | 0.0 | 7.0 | 0.00 | 0.00 | 0.00 | 64 | 1006.0 |
| 20260505063830 | 65 | 172 | 2.0 | 8.0 | 0.00 | 0.00 | 0.00 | 63 | 1006.0 |
| 20260505063317 | 65 | 192 | 1.0 | 7.0 | 0.00 | 0.00 | 0.00 | 64 | 1006.0 |
| 20260505062826 | 65 | 159 | 0.0 | 7.0 | 0.00 | 0.00 | 0.00 | 64 | 1006.0 |
| 20260505062330 | 65 | 201 | 2.0 | 7.0 | 0.00 | 0.00 | 0.00 | 64 | 1006.0 |
| 20260505061819 | 65 | 239 | 1.0 | 5.0 | 0.00 | 0.00 | 0.00 | 65 | 1006.0 |
| 20260505061341 | 65 | 164 | 0.0 | 6.0 | 0.00 | 0.00 | 0.00 | 65 | 1006.0 |
| 20260505060824 | 64 | 213 | 1.0 | 6.0 | 0.00 | 0.00 | 0.00 | 65 | 1006.0 |
| 20260505060331 | 64 | 237 | 0.0 | 6.0 | 0.00 | 0.00 | 0.00 | 67 | 1006.0 |
| 20260505055835 | 64 | 227 | 0.0 | 6.0 | 0.00 | 0.00 | 0.00 | 66 | 1006.2 |
| 20260505055339 | 64 | 220 | 1.0 | 9.0 | 0.00 | 0.00 | 0.00 | 67 | 1006.2 |
| 20260505054823 | 64 | 298 | 0.0 | 9.0 | 0.00 | 0.00 | 0.00 | 68 | 1006.2 |
| 20260505054328 | 64 | 175 | 0.0 | 2.0 | 0.00 | 0.00 | 0.00 | 69 | 1006.4 |
| 20260505053837 | 64 | 175 | 0.0 | 3.0 | 0.00 | 0.00 | 0.00 | 69 | 1006.4 |
| 20260505053320 | 63 | 142 | 0.0 | 3.0 | 0.00 | 0.00 | 0.00 | 69 | 1006.4 |
| 20260505052821 | 63 | 264 | 0.0 | 3.0 | 0.00 | 0.00 | 0.00 | 69 | 1006.5 |
| 20260505052326 | 63 | 186 | 0.0 | 3.0 | 0.00 | 0.00 | 0.00 | 70 | 1006.5 |
| 20260505051816 | 63 | 201 | 0.0 | 3.0 | 0.00 | 0.00 | 0.00 | 70 | 1006.5 |
| 20260505051319 | 63 | 161 | 0.0 | 3.0 | 0.00 | 0.00 | 0.00 | 71 | 1006.5 |
| 20260505050825 | 62 | 266 | 0.0 | 3.0 | 0.00 | 0.00 | 0.00 | 72 | 1006.5 |
| 20260505050334 | 62 | 153 | 0.0 | 3.0 | 0.00 | 0.00 | 0.00 | 73 | 1006.5 |
| 20260505041324 | 62 | 257 | 0.0 | 0.0 | 0.00 | 0.00 | 0.00 | 76 | 1006.5 |
| 20260505040850 | 62 | 257 | 0.0 | 0.0 | 0.00 | 0.00 | 0.00 | 76 | 1006.5 |
| 20260505040318 | 62 | 257 | 0.0 | 0.0 | 0.00 | 0.00 | 0.00 | 76 | 1006.5 |
| 20260505035820 | 62 | 257 | 0.0 | 0.0 | 0.00 | 0.00 | 0.00 | 76 | 1006.5 |
| 20260505035328 | 62 | 257 | 0.0 | 0.0 | 0.00 | 0.00 | 0.00 | 76 | 1006.5 |
| 20260505034852 | 62 | 257 | 0.0 | 0.0 | 0.00 | 0.00 | 0.00 | 77 | 1006.5 |
| 20260505034317 | 62 | 257 | 0.0 | 0.0 | 0.00 | 0.00 | 0.00 | 77 | 1006.5 |
| 20260505033825 | 62 | 257 | 0.0 | 0.0 | 0.00 | 0.00 | 0.00 | 77 | 1006.5 |
| 20260505033330 | 62 | 257 | 0.0 | 0.0 | 0.00 | 0.00 | 0.00 | 77 | 1006.5 |
| 20260505032854 | 62 | 257 | 0.0 | 0.0 | 0.00 | 0.00 | 0.00 | 76 | 1006.5 |
| 20260505032358 | 62 | 257 | 0.0 | 0.0 | 0.00 | 0.00 | 0.00 | 76 | 1006.5 |
| 20260505031840 | 62 | 257 | 0.0 | 0.0 | 0.00 | 0.00 | 0.00 | 76 | 1006.5 |
| 20260505031343 | 62 | 257 | 0.0 | 0.0 | 0.00 | 0.00 | 0.00 | 76 | 1006.4 |
| 20260505030832 | 62 | 257 | 0.0 | 0.0 | 0.00 | 0.00 | 0.00 | 75 | 1006.4 |
| 20260505030319 | 62 | 257 | 0.0 | 0.0 | 0.00 | 0.00 | 0.00 | 75 | 1006.4 |
| 20260505025823 | 62 | 257 | 0.0 | 0.0 | 0.00 | 0.00 | 0.00 | 75 | 1006.4 |
| 20260505025332 | 62 | 257 | 0.0 | 0.0 | 0.00 | 0.00 | 0.00 | 75 | 1006.4 |
| 20260505024817 | 62 | 257 | 0.0 | 0.0 | 0.00 | 0.00 | 0.00 | 75 | 1006.4 |
| 20260505024341 | 63 | 257 | 0.0 | 0.0 | 0.00 | 0.00 | 0.00 | 75 | 1006.5 |
| 20260505023828 | 63 | 257 | 0.0 | 0.0 | 0.00 | 0.00 | 0.00 | 75 | 1006.5 |
| 20260505023334 | 63 | 257 | 0.0 | 0.0 | 0.00 | 0.00 | 0.00 | 75 | 1006.5 |
| 20260505022836 | 63 | 257 | 0.0 | 0.0 | 0.00 | 0.00 | 0.00 | 75 | 1006.4 |
| 20260505022321 | 63 | 257 | 0.0 | 0.0 | 0.00 | 0.00 | 0.00 | 74 | 1006.4 |
| 20260505021827 | 63 | 257 | 0.0 | 0.0 | 0.00 | 0.00 | 0.00 | 75 | 1006.4 |
| 20260505021336 | 63 | 257 | 0.0 | 0.0 | 0.00 | 0.00 | 0.00 | 75 | 1006.3 |
| 20260505020821 | 63 | 257 | 0.0 | 0.0 | 0.00 | 0.00 | 0.00 | 75 | 1006.3 |
| 20260505020348 | 63 | 257 | 0.0 | 0.0 | 0.00 | 0.00 | 0.00 | 75 | 1006.3 |
| 20260505015850 | 63 | 257 | 0.0 | 0.0 | 0.00 | 0.00 | 0.00 | 75 | 1006.3 |
| 20260505015353 | 63 | 257 | 0.0 | 0.0 | 0.00 | 0.00 | 0.00 | 75 | 1006.3 |
| 20260505014820 | 63 | 257 | 0.0 | 0.0 | 0.00 | 0.00 | 0.00 | 74 | 1006.3 |
| 20260505014324 | 63 | 257 | 0.0 | 0.0 | 0.00 | 0.00 | 0.00 | 74 | 1006.1 |
| 20260505013830 | 63 | 257 | 0.0 | 0.0 | 0.00 | 0.00 | 0.00 | 73 | 1006.1 |
| 20260505013335 | 63 | 257 | 0.0 | 0.0 | 0.00 | 0.00 | 0.00 | 72 | 1006.1 |
| 20260505012836 | 63 | 257 | 0.0 | 0.0 | 0.00 | 0.00 | 0.00 | 72 | 1006.0 |
| 20260505012319 | 64 | 257 | 0.0 | 0.0 | 0.00 | 0.00 | 0.00 | 72 | 1006.0 |
| 20260505011825 | 64 | 257 | 0.0 | 0.0 | 0.00 | 0.00 | 0.00 | 71 | 1006.0 |
| 20260505011330 | 64 | 257 | 0.0 | 0.0 | 0.00 | 0.00 | 0.00 | 71 | 1006.0 |
| 20260505010839 | 64 | 257 | 0.0 | 0.0 | 0.00 | 0.00 | 0.00 | 70 | 1006.0 |
| 20260505010328 | 65 | 257 | 0.0 | 0.0 | 0.00 | 0.00 | 0.00 | 70 | 1006.0 |
| 20260505005833 | 65 | 257 | 0.0 | 0.0 | 0.00 | 0.00 | 0.00 | 69 | 1006.0 |
| 20260505005340 | 65 | 257 | 0.0 | 0.0 | 0.00 | 0.00 | 0.00 | 69 | 1006.0 |
| 20260505004827 | 65 | 257 | 0.0 | 0.0 | 0.00 | 0.00 | 0.00 | 68 | 1006.0 |
| 20260505004336 | 66 | 257 | 0.0 | 0.0 | 0.00 | 0.00 | 0.00 | 68 | 1006.0 |
| 20260505003842 | 66 | 257 | 0.0 | 0.0 | 0.00 | 0.00 | 0.00 | 67 | 1006.0 |
| 20260505003326 | 66 | 257 | 0.0 | 2.0 | 0.00 | 0.00 | 0.00 | 66 | 1006.0 |
| 20260505002835 | 66 | 257 | 0.0 | 2.0 | 0.00 | 0.00 | 0.00 | 66 | 1006.0 |
| 20260505002321 | 67 | 269 | 0.0 | 3.0 | 0.00 | 0.00 | 0.00 | 65 | 1006.0 |
| 20260505001826 | 67 | 283 | 0.0 | 3.0 | 0.00 | 0.00 | 0.00 | 65 | 1006.0 |
| 20260505001327 | 67 | 284 | 0.0 | 3.0 | 0.00 | 0.00 | 0.00 | 65 | 1006.0 |
| 20260505000836 | 67 | 195 | 0.0 | 2.0 | 0.00 | 0.00 | 0.00 | 65 | 1006.0 |
| 20260505000321 | 67 | 195 | 0.0 | 5.0 | 0.00 | 0.00 | 0.00 | 65 | 1006.0 |
| 20260504235827 | 67 | 194 | 0.0 | 2.0 | 0.00 | 0.00 | 0.00 | 65 | 1006.0 |
| 20260504235332 | 67 | 202 | 0.0 | 2.0 | 0.00 | 0.00 | 0.00 | 65 | 1006.0 |
| 20260504234815 | 67 | 202 | 0.0 | 0.0 | 0.00 | 0.00 | 0.00 | 66 | 1006.0 |
| 20260504234323 | 67 | 202 | 0.0 | 1.0 | 0.00 | 0.00 | 0.00 | 66 | 1006.0 |
| 20260504233831 | 67 | 202 | 0.0 | 1.0 | 0.00 | 0.00 | 0.00 | 66 | 1006.0 |
| 20260504233320 | 67 | 201 | 0.0 | 1.0 | 0.00 | 0.00 | 0.00 | 66 | 1006.0 |
| 20260504232825 | 67 | 202 | 0.0 | 0.0 | 0.00 | 0.00 | 0.00 | 65 | 1006.2 |
| 20260504232334 | 67 | 202 | 0.0 | 3.0 | 0.00 | 0.00 | 0.00 | 64 | 1006.2 |
| 20260504231844 | 68 | 201 | 0.0 | 3.0 | 0.00 | 0.00 | 0.00 | 64 | 1006.2 |
| 20260504231344 | 68 | 242 | 1.0 | 4.0 | 0.00 | 0.00 | 0.00 | 63 | 1006.5 |
| 20260504230831 | 68 | 205 | 0.0 | 4.0 | 0.00 | 0.00 | 0.00 | 63 | 1006.5 |
| 20260504230317 | 68 | 201 | 0.0 | 4.0 | 0.00 | 0.00 | 0.00 | 63 | 1006.5 |
| 20260504225823 | 68 | 224 | 0.0 | 8.0 | 0.00 | 0.00 | 0.00 | 63 | 1006.6 |
| 20260504225331 | 69 | 123 | 1.0 | 8.0 | 0.00 | 0.00 | 0.00 | 61 | 1006.6 |
| 20260504224817 | 69 | 197 | 0.0 | 11.0 | 0.00 | 0.00 | 0.00 | 59 | 1006.6 |
| 20260504224319 | 69 | 267 | 3.0 | 11.0 | 0.00 | 0.00 | 0.00 | 58 | 1006.7 |
| 20260504223843 | 68 | 230 | 0.0 | 9.0 | 0.00 | 0.00 | 0.00 | 59 | 1006.7 |
| 20260504223351 | 68 | 284 | 1.0 | 10.0 | 0.00 | 0.00 | 0.00 | 59 | 1006.7 |
| 20260504222833 | 69 | 157 | 4.0 | 11.0 | 0.00 | 0.00 | 0.00 | 58 | 1006.8 |
| 20260504222315 | 69 | 170 | 3.0 | 11.0 | 0.00 | 0.00 | 0.00 | 57 | 1006.8 |
| 20260504221825 | 69 | 141 | 2.0 | 8.0 | 0.00 | 0.00 | 0.00 | 56 | 1006.8 |
| 20260504221349 | 69 | 108 | 3.0 | 8.0 | 0.00 | 0.00 | 0.00 | 56 | 1007.0 |
| 20260504220836 | 70 | 68 | 2.0 | 6.0 | 0.00 | 0.00 | 0.00 | 56 | 1007.0 |
| 20260504220322 | 69 | 224 | 2.0 | 9.0 | 0.00 | 0.00 | 0.00 | 57 | 1007.0 |
| 20260504215828 | 69 | 188 | 3.0 | 9.0 | 0.00 | 0.00 | 0.00 | 55 | 1006.9 |
| 20260504215333 | 70 | 240 | 3.0 | 9.0 | 0.00 | 0.00 | 0.00 | 55 | 1006.9 |
| 20260504214816 | 70 | 123 | 1.0 | 9.0 | 0.00 | 0.00 | 0.00 | 55 | 1006.9 |
| 20260504214318 | 70 | 105 | 2.0 | 9.0 | 0.00 | 0.00 | 0.00 | 54 | 1006.5 |
| 20260504213823 | 69 | 246 | 1.0 | 8.0 | 0.00 | 0.00 | 0.00 | 58 | 1006.5 |
| 20260504213329 | 69 | 233 | 1.0 | 6.0 | 0.00 | 0.00 | 0.00 | 61 | 1006.5 |
| 20260504212832 | 68 | 214 | 1.0 | 6.0 | 0.00 | 0.00 | 0.00 | 61 | 1006.5 |
| 20260504212337 | 68 | 207 | 2.0 | 6.0 | 0.00 | 0.00 | 0.00 | 59 | 1006.5 |
| 20260504211826 | 68 | 184 | 2.0 | 6.0 | 0.00 | 0.00 | 0.00 | 59 | 1006.5 |
| 20260504211331 | 68 | 163 | 0.0 | 12.0 | 0.00 | 0.00 | 0.00 | 62 | 1007.0 |
| 20260504210837 | 68 | 210 | 1.0 | 12.0 | 0.00 | 0.00 | 0.00 | 60 | 1007.0 |
| 20260504210321 | 68 | 260 | 3.0 | 10.0 | 0.00 | 0.00 | 0.00 | 60 | 1007.0 |
| 20260504205824 | 68 | 120 | 2.0 | 12.0 | 0.00 | 0.00 | 0.00 | 59 | 1007.3 |
| 20260504205349 | 69 | 161 | 3.0 | 12.0 | 0.00 | 0.00 | 0.00 | 59 | 1007.3 |
| 20260504204833 | 69 | 203 | 2.0 | 10.0 | 0.00 | 0.00 | 0.00 | 58 | 1007.3 |
| 20260504204317 | 69 | 174 | 3.0 | 10.0 | 0.00 | 0.00 | 0.00 | 58 | 1007.6 |
| 20260504203825 | 69 | 146 | 1.0 | 9.0 | 0.00 | 0.00 | 0.00 | 59 | 1007.6 |
| 20260504203331 | 70 | 56 | 3.0 | 16.0 | 0.00 | 0.00 | 0.00 | 56 | 1007.6 |
| 20260504202834 | 71 | 191 | 5.0 | 16.0 | 0.00 | 0.00 | 0.00 | 54 | 1007.6 |
| 20260504202322 | 71 | 163 | 5.0 | 16.0 | 0.00 | 0.00 | 0.00 | 53 | 1007.6 |
| 20260504201828 | 72 | 142 | 2.0 | 13.0 | 0.00 | 0.00 | 0.00 | 52 | 1007.6 |
| 20260504201330 | 72 | 102 | 3.0 | 8.0 | 0.00 | 0.00 | 0.00 | 52 | 1007.5 |
| 20260504200818 | 72 | 101 | 2.0 | 8.0 | 0.00 | 0.00 | 0.00 | 54 | 1007.5 |
| 20260504200323 | 72 | 82 | 2.0 | 8.0 | 0.00 | 0.00 | 0.00 | 54 | 1007.5 |
| 20260504195824 | 72 | 207 | 3.0 | 10.0 | 0.00 | 0.00 | 0.00 | 53 | 1007.6 |
| 20260504195331 | 72 | 174 | 2.0 | 17.0 | 0.00 | 0.00 | 0.00 | 52 | 1007.6 |
| 20260504194815 | 72 | 132 | 5.0 | 17.0 | 0.00 | 0.00 | 0.00 | 51 | 1007.6 |
| 20260504194338 | 72 | 144 | 3.0 | 10.0 | 0.00 | 0.00 | 0.00 | 52 | 1007.4 |
| 20260504193822 | 72 | 124 | 2.0 | 10.0 | 0.00 | 0.00 | 0.00 | 52 | 1007.4 |
| 20260504193331 | 72 | 123 | 2.0 | 10.0 | 0.00 | 0.00 | 0.00 | 53 | 1007.4 |
| 20260504192818 | 72 | 162 | 3.0 | 8.0 | 0.00 | 0.00 | 0.00 | 52 | 1007.5 |
| 20260504192323 | 72 | 148 | 1.0 | 10.0 | 0.00 | 0.00 | 0.00 | 53 | 1007.5 |
| 20260504191831 | 71 | 147 | 3.0 | 10.0 | 0.00 | 0.00 | 0.00 | 52 | 1007.5 |
| 20260504191317 | 71 | 161 | 2.0 | 8.0 | 0.00 | 0.00 | 0.00 | 53 | 1007.4 |
| 20260504190828 | 71 | 120 | 2.0 | 8.0 | 0.00 | 0.00 | 0.00 | 53 | 1007.4 |
| 20260504190333 | 71 | 278 | 2.0 | 9.0 | 0.00 | 0.00 | 0.00 | 53 | 1007.4 |
| 20260504185836 | 71 | 140 | 3.0 | 9.0 | 0.00 | 0.00 | 0.00 | 55 | 1007.6 |
| 20260504185321 | 71 | 231 | 3.0 | 10.0 | 0.00 | 0.00 | 0.00 | 54 | 1007.6 |
| 20260504184846 | 71 | 84 | 2.0 | 10.0 | 0.00 | 0.00 | 0.00 | 52 | 1007.6 |
| 20260504184347 | 71 | 267 | 2.0 | 10.0 | 0.00 | 0.00 | 0.00 | 55 | 1007.6 |
| 20260504183818 | 70 | 192 | 4.0 | 10.0 | 0.00 | 0.00 | 0.00 | 55 | 1007.6 |
| 20260504183324 | 70 | 169 | 3.0 | 7.0 | 0.00 | 0.00 | 0.00 | 54 | 1007.6 |
| 20260504182830 | 70 | 237 | 2.0 | 7.0 | 0.00 | 0.00 | 0.00 | 55 | 1007.6 |
| 20260504182336 | 70 | 107 | 2.0 | 8.0 | 0.00 | 0.00 | 0.00 | 56 | 1007.6 |
| 20260504181820 | 70 | 88 | 3.0 | 9.0 | 0.00 | 0.00 | 0.00 | 54 | 1007.6 |
| 20260504181326 | 70 | 169 | 1.0 | 9.0 | 0.00 | 0.00 | 0.00 | 55 | 1007.8 |
| 20260504180813 | 70 | 113 | 3.0 | 9.0 | 0.00 | 0.00 | 0.00 | 54 | 1007.8 |
| 20260504180325 | 70 | 174 | 3.0 | 8.0 | 0.00 | 0.00 | 0.00 | 55 | 1007.8 |
| 20260504175830 | 70 | 130 | 3.0 | 8.0 | 0.00 | 0.00 | 0.00 | 55 | 1008.0 |
| 20260504175335 | 69 | 234 | 3.0 | 9.0 | 0.00 | 0.00 | 0.00 | 55 | 1008.0 |
| 20260504174819 | 69 | 238 | 2.0 | 11.0 | 0.00 | 0.00 | 0.00 | 57 | 1008.0 |
| 20260504174322 | 69 | 60 | 3.0 | 11.0 | 0.00 | 0.00 | 0.00 | 55 | 1008.1 |
| 20260504173828 | 68 | 165 | 3.0 | 11.0 | 0.00 | 0.00 | 0.00 | 60 | 1008.1 |
| 20260504173316 | 68 | 208 | 4.0 | 11.0 | 0.00 | 0.00 | 0.00 | 56 | 1008.1 |
| 20260504172843 | 68 | 212 | 1.0 | 7.0 | 0.00 | 0.00 | 0.00 | 58 | 1008.1 |
| 20260504172327 | 68 | 127 | 1.0 | 8.0 | 0.00 | 0.00 | 0.00 | 60 | 1008.1 |
| 20260504171835 | 68 | 280 | 2.0 | 7.0 | 0.00 | 0.00 | 0.00 | 58 | 1008.1 |
| 20260504171338 | 68 | 191 | 2.0 | 8.0 | 0.00 | 0.00 | 0.00 | 58 | 1008.2 |
| 20260504170825 | 67 | 135 | 4.0 | 9.0 | 0.00 | 0.00 | 0.00 | 58 | 1008.2 |
| 20260504170330 | 67 | 201 | 2.0 | 9.0 | 0.00 | 0.00 | 0.00 | 60 | 1008.2 |
| 20260504160327 | 64 | 126 | 3.0 | 10.0 | 0.00 | 0.00 | 0.00 | 60 | 1008.9 |
| 20260504150818 | 61 | 155 | 4.0 | 10.0 | 0.00 | 0.00 | 0.00 | 61 | 1009.2 |
| 20260504150324 | 61 | 188 | 2.0 | 9.0 | 0.00 | 0.00 | 0.00 | 61 | 1009.2 |
| 20260504140828 | 59 | 213 | 1.0 | 10.0 | 0.00 | 0.00 | 0.00 | 63 | 1009.8 |
| 20260504140332 | 59 | 238 | 3.0 | 10.0 | 0.00 | 0.00 | 0.00 | 62 | 1009.8 |
| 20260504130338 | 56 | 90 | 1.0 | 10.0 | 0.00 | 0.00 | 0.00 | 62 | 1010.0 |
| 20260504120318 | 51 | 200 | 1.0 | 4.0 | 0.00 | 0.00 | 0.00 | 69 | 1009.9 |
| 20260504110335 | 48 | 264 | 0.0 | 0.0 | 0.00 | 0.00 | 0.00 | 73 | 1009.7 |
| 20260504100335 | 49 | 187 | 0.0 | 3.0 | 0.00 | 0.00 | 0.00 | 71 | 1009.8 |
| 20260504081824 | 51 | 199 | 1.0 | 4.0 | 0.00 | 0.00 | 0.00 | 65 | 1010.8 |
| 20260504081331 | 51 | 175 | 0.0 | 4.0 | 0.00 | 0.00 | 0.00 | 65 | 1010.8 |
| 20260504080815 | 51 | 211 | 0.0 | 0.0 | 0.00 | 0.00 | 0.00 | 65 | 1010.8 |
| 20260504080324 | 51 | 211 | 0.0 | 0.0 | 0.00 | 0.00 | 0.00 | 65 | 1010.8 |